When you browse on this site, cookies collect data to enhance your experience and personalize the content and advertising you see.
Visit our Privacy Policy to learn more. By continuing to use the site, you agree to this use of cookies and data.
  • In Hungary
  • List of Countries
  • For 7 days
  • Water Temperature
  • Satellite Maps
  • Weather Map
  • News
  • Weather Widgets
  • user-avatar
    Login

    Hourly Weather Livingstone

    Today, 21 April, Sunday

    Time Temperature Precipitation Wind Pressure Humidity
    00:00 +21°C° 0 mm 1 mps 683 mmHg 80%
    01:00 +21°C° 0 mm 1 mps 683 mmHg 81%
    02:00 +21°C° 0 mm 1 mps 683 mmHg 81%
    03:00 +20°C° 0 mm 1 mps 683 mmHg 82%
    04:00 +20°C° 0 mm 1 mps 683 mmHg 82%
    05:00 +20°C° 0 mm 1 mps 683 mmHg 83%
    06:00 +21°C° 0 mm 1 mps 683 mmHg 79%
    07:00 +22°C° 0 mm 1 mps 684 mmHg 74%
    08:00 +23°C° 0 mm 1 mps 685 mmHg 66%
    09:00 +25°C° 0 mm 2 mps 685 mmHg 58%
    10:00 +28°C° 0 mm 2 mps 685 mmHg 49%
    11:00 +30°C° 0 mm 2 mps 685 mmHg 40%
    12:00 +31°C° 0 mm 2 mps 684 mmHg 37%
    13:00 +32°C° 0 mm 2 mps 684 mmHg 34%
    14:00 +35°C° 0 mm 2 mps 683 mmHg 31%
    15:00 +34°C° 0 mm 2 mps 683 mmHg 33%
    16:00 +32°C° 0 mm 2 mps 682 mmHg 34%
    17:00 +32°C° 0 mm 2 mps 682 mmHg 36%
    18:00 +30°C° 0 mm 2 mps 682 mmHg 41%
    19:00 +28°C° 0 mm 2 mps 682 mmHg 47%
    20:00 +26°C° 0 mm 2 mps 682 mmHg 53%
    21:00 +25°C° 0 mm 2 mps 682 mmHg 57%
    22:00 +24°C° 0 mm 2 mps 682 mmHg 61%
    23:00 +23°C° 0 mm 1 mps 682 mmHg 66%

    Tomorrow, 22 April, Monday

    Time Temperature Precipitation Wind Pressure Humidity
    00:00 +23°C° 0 mm 1 mps 682 mmHg 67%
    01:00 +22°C° 0 mm 1 mps 682 mmHg 68%
    02:00 +22°C° 0 mm 1 mps 682 mmHg 69%
    03:00 +22°C° 0 mm 1 mps 682 mmHg 69%
    04:00 +20°C° 0 mm 2 mps 682 mmHg 70%
    05:00 +20°C° 0 mm 2 mps 682 mmHg 71%
    06:00 +21°C° 0 mm 3 mps 683 mmHg 68%
    07:00 +21°C° 0 mm 3 mps 683 mmHg 65%
    08:00 +22°C° 0 mm 3 mps 684 mmHg 63%
    09:00 +26°C° 0 mm 3 mps 684 mmHg 56%
    10:00 +28°C° 0 mm 3 mps 685 mmHg 49%
    11:00 +31°C° 0 mm 3 mps 685 mmHg 42%
    12:00 +33°C° 0 mm 3 mps 685 mmHg 39%
    13:00 +33°C° 0 mm 3 mps 684 mmHg 36%
    14:00 +34°C° 0 mm 3 mps 683 mmHg 33%
    15:00 +34°C° 0 mm 2 mps 683 mmHg 35%
    16:00 +32°C° 0 mm 2 mps 682 mmHg 37%
    17:00 +31°C° 0 mm 2 mps 682 mmHg 39%
    18:00 +29°C° 0 mm 2 mps 682 mmHg 44%
    19:00 +27°C° 0 mm 2 mps 682 mmHg 49%
    20:00 +25°C° 0 mm 2 mps 682 mmHg 54%
    21:00 +25°C° 0 mm 2 mps 682 mmHg 57%
    22:00 +24°C° 0 mm 2 mps 682 mmHg 60%
    23:00 +23°C° 0 mm 1 mps 682 mmHg 62%

    Day after tomorrow, 23 April, Tuesday

    Time Temperature Precipitation Wind Pressure Humidity
    00:00 +23°C° 0 mm 1 mps 682 mmHg 62%
    01:00 +22°C° 0 mm 1 mps 682 mmHg 63%
    02:00 +22°C° 0 mm 1 mps 682 mmHg 63%
    03:00 +21°C° 0 mm 1 mps 682 mmHg 65%
    04:00 +20°C° 0 mm 2 mps 682 mmHg 68%
    05:00 +19°C° 0 mm 2 mps 682 mmHg 70%
    06:00 +20°C° 0 mm 2 mps 683 mmHg 68%
    07:00 +21°C° 0 mm 3 mps 684 mmHg 66%
    08:00 +22°C° 0 mm 3 mps 684 mmHg 64%
    09:00 +25°C° 0 mm 3 mps 685 mmHg 56%
    10:00 +28°C° 0 mm 3 mps 686 mmHg 49%
    11:00 +30°C° 0 mm 3 mps 686 mmHg 42%
    12:00 +33°C° 0 mm 3 mps 685 mmHg 39%
    13:00 +34°C° 0 mm 3 mps 685 mmHg 35%
    14:00 +35°C° 0 mm 2 mps 684 mmHg 32%
    15:00 +34°C° 0 mm 2 mps 684 mmHg 34%
    16:00 +32°C° 0 mm 2 mps 683 mmHg 36%
    17:00 +32°C° 0 mm 2 mps 683 mmHg 38%
    18:00 +30°C° 0 mm 2 mps 683 mmHg 43%
    19:00 +28°C° 0 mm 2 mps 683 mmHg 49%
    20:00 +26°C° 0 mm 2 mps 684 mmHg 54%
    21:00 +25°C° 0 mm 2 mps 684 mmHg 56%
    22:00 +24°C° 0 mm 2 mps 684 mmHg 58%
    23:00 +24°C° 0 mm 1 mps 684 mmHg 59%

    24 April, Wednesday

    Time Temperature Precipitation Wind Pressure Humidity
    00:00 +23°C° 0 mm 1 mps 684 mmHg 60%
    01:00 +23°C° 0 mm 1 mps 684 mmHg 60%
    02:00 +22°C° 0 mm 1 mps 683 mmHg 61%
    03:00 +22°C° 0 mm 1 mps 683 mmHg 62%
    04:00 +21°C° 0 mm 1 mps 683 mmHg 63%
    05:00 +20°C° 0 mm 2 mps 683 mmHg 65%
    06:00 +21°C° 0 mm 2 mps 684 mmHg 62%
    07:00 +23°C° 0 mm 2 mps 685 mmHg 60%
    08:00 +24°C° 0 mm 2 mps 686 mmHg 57%
    09:00 +26°C° 0 mm 2 mps 686 mmHg 51%
    10:00 +29°C° 0 mm 2 mps 686 mmHg 44%
    11:00 +31°C° 0 mm 2 mps 687 mmHg 37%
    12:00 +32°C° 0 mm 2 mps 686 mmHg 35%
    13:00 +34°C° 0 mm 2 mps 685 mmHg 32%
    14:00 +35°C° 0 mm 2 mps 685 mmHg 29%
    15:00 +35°C° 0 mm 2 mps 684 mmHg 30%
    16:00 +34°C° 0 mm 3 mps 684 mmHg 31%
    17:00 +33°C° 0 mm 3 mps 683 mmHg 32%
    18:00 +30°C° 0 mm 3 mps 684 mmHg 38%
    19:00 +28°C° 0 mm 2 mps 684 mmHg 43%
    20:00 +26°C° 0 mm 2 mps 684 mmHg 49%
    21:00 +25°C° 0 mm 2 mps 684 mmHg 51%
    22:00 +24°C° 0 mm 1 mps 684 mmHg 54%
    23:00 +24°C° 0 mm 1 mps 684 mmHg 56%

    25 April, Thursday

    Time Temperature Precipitation Wind Pressure Humidity
    00:00 +23°C° 0 mm 1 mps 684 mmHg 57%
    01:00 +23°C° 0 mm 1 mps 684 mmHg 59%
    02:00 +21°C° 0 mm 0 mps 684 mmHg 60%
    03:00 +22°C° 0 mm 1 mps 684 mmHg 62%
    04:00 +22°C° 0 mm 1 mps 684 mmHg 63%
    05:00 +20°C° 0 mm 2 mps 684 mmHg 65%
    06:00 +21°C° 0 mm 2 mps 684 mmHg 63%
    07:00 +23°C° 0 mm 2 mps 685 mmHg 61%
    08:00 +24°C° 0 mm 2 mps 686 mmHg 59%
    09:00 +27°C° 0 mm 2 mps 686 mmHg 52%
    10:00 +29°C° 0 mm 2 mps 686 mmHg 45%
    11:00 +32°C° 0 mm 2 mps 686 mmHg 37%
    12:00 +34°C° 0 mm 2 mps 685 mmHg 34%
    13:00 +35°C° 0 mm 2 mps 684 mmHg 31%
    14:00 +36°C° 0 mm 2 mps 684 mmHg 28%
    15:00 +35°C° 0 mm 2 mps 683 mmHg 29%
    16:00 +34°C° 0 mm 2 mps 683 mmHg 31%
    17:00 +34°C° 0 mm 2 mps 682 mmHg 32%
    18:00 +31°C° 0 mm 2 mps 682 mmHg 37%
    19:00 +28°C° 0 mm 1 mps 683 mmHg 41%
    20:00 +26°C° 0 mm 1 mps 683 mmHg 46%
    21:00 +26°C° 0 mm 1 mps 683 mmHg 48%
    22:00 +25°C° 0 mm 1 mps 683 mmHg 50%
    23:00 +25°C° 0 mm 1 mps 683 mmHg 52%

    26 April, Friday

    Time Temperature Precipitation Wind Pressure Humidity
    00:00 +24°C° 0 mm 1 mps 683 mmHg 54%
    01:00 +22°C° 0 mm 0 mps 682 mmHg 55%
    02:00 +21°C° 0 mm 0 mps 682 mmHg 57%
    03:00 +21°C° 0 mm 0 mps 682 mmHg 58%
    04:00 +22°C° 0 mm 1 mps 682 mmHg 59%
    05:00 +22°C° 0 mm 1 mps 682 mmHg 61%
    06:00 +23°C° 0 mm 1 mps 683 mmHg 59%
    07:00 +24°C° 0 mm 1 mps 684 mmHg 57%
    08:00 +23°C° 0 mm 0 mps 684 mmHg 55%
    09:00 +28°C° 0 mm 1 mps 684 mmHg 48%
    10:00 +31°C° 0 mm 2 mps 685 mmHg 40%
    11:00 +34°C° 0 mm 2 mps 685 mmHg 33%
    12:00 +35°C° 0 mm 2 mps 684 mmHg 30%
    13:00 +36°C° 0 mm 2 mps 683 mmHg 26%
    14:00 +37°C° 0 mm 2 mps 683 mmHg 22%
    15:00 +36°C° 0 mm 2 mps 682 mmHg 23%
    16:00 +36°C° 0 mm 2 mps 682 mmHg 24%
    17:00 +35°C° 0 mm 2 mps 682 mmHg 25%
    18:00 +32°C° 0 mm 2 mps 682 mmHg 32%
    19:00 +29°C° 0 mm 2 mps 682 mmHg 39%
    20:00 +27°C° 0 mm 2 mps 682 mmHg 45%
    21:00 +26°C° 0 mm 2 mps 682 mmHg 50%
    22:00 +25°C° 0 mm 1 mps 682 mmHg 54%
    23:00 +24°C° 0 mm 1 mps 682 mmHg 58%
    Show more